Simultaneous Nadir Overpasses (SNOs) Predictions

Prediction of SNOs between AQUA and NOAA-19 Satellite Orbit:

Table of predicted SNOs for the next 14.0 days since TLE Epoch: 5/5/2017
Index Date (AQUA) Time (AQUA) Lat,Lon (AQUA) SZA (AQUA ) Date (NOAA-19) Time (NOAA-19) Lat,Lon (NOAA-19) SZA (NOAA-19 ) Distance(km) Time Diff (sec)
1 05/06/2017 15:52:12 -80.95, 81.64 113.64 05/06/2017 15:52:19 -80.96, 81.65 113.64 0.41 7
2 05/08/2017 21:25:55 80.95, 178.21 65.76 05/08/2017 21:26:05 80.96, 178.05 65.77 2.86 10
3 05/11/2017 02:59:37 -80.95, -85.19 114.83 05/11/2017 03:00:00 -80.96, -85.20 114.84 0.65 23
4 05/13/2017 07:43:53 -80.95,-156.29 115.38 05/13/2017 07:42:51 -80.96,-156.44 115.33 2.58 62
5 05/13/2017 08:33:20 80.95, 11.31 64.63 05/13/2017 08:33:45 80.96, 11.31 64.62 0.13 25
6 05/15/2017 13:17:36 80.96, -59.82 64.11 05/15/2017 13:16:35 80.96, -59.64 64.12 3.21 61
7 05/15/2017 14:07:02 -80.96, 107.87 115.91 05/15/2017 14:07:41 -80.96, 107.76 115.91 1.90 39
8 05/17/2017 18:51:18 -80.96, 36.71 116.39 05/17/2017 18:50:31 -80.96, 36.80 116.38 1.68 47




NCC Satellite Simultaneous Nadir Overpasses (SNOs) Prediction Service
